Regional Weather Roundup
Issued by NWS

Home | Current Version | Previous Version | Text Only | Print | Product List | Glossary Off
Versions: 1 2 3 4 5 6 7 8 9 10 11 12 13 14 15 16 17 18 19 20 21 22 23 24 25 26 27 28 29 30 31 32 33 34 35 36 37 38 39 40 41 42 43 44 45 46 47 48 49 50

000
ASUS45 KPSR 261610
RWRAZ

ARIZONA HOURLY REGIONAL WEATHER ROUNDUP
NATIONAL WEATHER SERVICE PHOENIX AZ
900 AM MST SAT MAY 26 2018

NOTE: FAIR INDICATES FEW OR NO CLOUDS BELOW 12,000 FEET WITH NO
SIGNIFICANT WEATHER AND/OR OBSTRUCTIONS TO VISIBILITY.

AZZ001>003-036-261700-
NORTHWEST ARIZONA

CITY           SKY/WX    TMP DP  RH WIND       PRES   REMARKS
BULLHEAD CITY  SUNNY     93  34  12 S9        29.83S
KINGMAN          N/A    N/A N/A N/A MISG      29.91R
$$

AZZ004>008-015-016-018-261700-
NORTH CENTRAL ARIZONA

CITY           SKY/WX    TMP DP  RH WIND       PRES   REMARKS
GRAND CANYON   SUNNY     63  23  21 S14G29    30.04F
WILLIAMS       SUNNY     64  19  17 S15G26    30.02S
PRESCOTT       SUNNY     69  29  22 S14       29.99S
FLAGSTAFF      SUNNY     61  22  22 S22G30    30.06F
PAYSON         MOSUNNY   70  19  14 S8        30.02F
PAGE           SUNNY     75  21  13 VRB6      29.90F
$$

AZZ009>014-017-261700-
NORTHEAST ARIZONA

CITY           SKY/WX    TMP DP  RH WIND       PRES   REMARKS
WINSLOW        MOSUNNY   72  23  16 SE14      29.98F
SAINT JOHNS    CLOUDY    59  18  20 CALM      30.04F
WINDOW ROCK    CLOUDY    57  18  21 N3        30.12F
SHOW LOW       CLOUDY    66  23  19 S18G25    30.09F
$$

AZZ540-542>544-546-548-261700-
GREATER PHOENIX AREA

CITY           SKY/WX    TMP DP  RH WIND       PRES   REMARKS
PHOENIX        PTSUNNY   80  35  19 NW7       29.83S
BUCKEYE        SUNNY     75  37  25 SW7       29.87R
GLENDALE       PTSUNNY   79  36  21 S10G17    29.86R
DEER VALLEY    MOSUNNY   76  34  21 S6        29.85S
SCOTTSDALE     MOSUNNY   78  36  21 VRB3      29.87S
MESA-FALCON    MOSUNNY   81  36  19 S7        29.86S
CHANDLER       PTSUNNY   77  36  22 S8        29.85S
$$

AZZ539-553-261700-
SOUTHWEST MARICOPA COUNTY AND PINAL COUNTY

CITY           SKY/WX    TMP DP  RH WIND       PRES   REMARKS
CASA GRANDE    NOT AVBL
$$

AZZ503-504-507>509-261700-
SOUTHEAST ARIZONA

CITY           SKY/WX    TMP DP  RH WIND       PRES   REMARKS
TUCSON         PTSUNNY   80  27  14 CALM      29.93F
DAVIS-MONTHAN  CLOUDY    82  28  14 CALM      29.91F
RYAN FIELD     SUNNY     79  30  17 NW5       29.92F
NOGALES        MOSUNNY   80  30  16 S8        29.99R
SIERRA VISTA   CLOUDY    81  25  12 NE7       30.03F
DOUGLAS        MOSUNNY   82  28  14 S10       30.00S
SAFFORD        CLOUDY    78  26  14 CALM      29.92R
$$

AZZ532-261700-
SOUTHWEST ARIZONA

CITY           SKY/WX    TMP DP  RH WIND       PRES   REMARKS
YUMA           SUNNY     72  44  36 NW14G24   29.89S
$$

CAZ041-043-047-048-061-525>527-560>570-261700-
SOUTHERN CALIFORNIA

CITY           SKY/WX    TMP DP  RH WIND       PRES   REMARKS
DOWNTOWN L.A.  NOT AVBL
L.A. AIRPORT   PTSUNNY   62  51  67 S7        30.02R
SAN DIEGO      PTSUNNY   63  52  67 W7        30.07
BURBANK        SUNNY     59  51  75 SE9       30.01S
ONTARIO        CLOUDY    57  49  74 S7        30.02S
RIVERSIDE      CLOUDY    59  49  69 CALM      30.02S
PALM SPRINGS   SUNNY     74  43  32 VRB6      29.88S
EL CENTRO NAS  MOSUNNY   73  40  30 W15       29.92S
IMPERIAL       SUNNY     72  43  35 W20G28    29.88S
BLYTHE         SUNNY     74  43  32 CALM      29.86S
NEEDLES        SUNNY     78  36  21 NW6       29.84S
$$

NVZ020-UTZ003-261700-
SOUTHERN NEVADA-UTAH

CITY           SKY/WX    TMP DP  RH WIND       PRES   REMARKS
LAS VEGAS      SUNNY     69  38  32 S8        29.83S
SALT LAKE CITY SUNNY     76  24  14 S15       29.83F
$$

NMZ009-TXZ055-261700-
NEW MEXICO-WEST TEXAS

CITY           SKY/WX    TMP DP  RH WIND       PRES   REMARKS
ALBUQUERQUE    CLOUDY    68  24  19 N7        30.08S
EL PASO        PTSUNNY   82  16   8 S9        29.99R
$$


........................KEY........................
SKY/WX - SKY CONDITION/WEATHER
TMP    - TEMPERATURE IN FAHRENHEIT
DP     - DEW POINT IN FAHRENHEIT
RH     - RELATIVE HUMIDITY IN PERCENT
WIND   - DIRECTION AND SPEED IN MILES PER HOUR (MPH)
VRB    - VARIABLE WIND DIRECTION
PRES   - MEAN SEA LEVEL PRESSURE IN INCHES OF MERCURY
         F - FALLING PRESSURE   R - RISING PRESSURE
         S - STEADY PRESSURE
VSB    - VISIBILITY IN MILES
HX     - HEAT INDEX IN FAHRENHEIT
WCI    - WIND CHILL INDEX IN FAHRENHEIT
TC     - TEMPERATURE IN CELSIUS WHICH IS ALSO KNOWN AS
         TEMPERATURE IN CENTIGRADE
AFB    - AIR FORCE BASE
         LUKE AFB IS LUKE AIR FORCE BASE
         DAVIS-MONTHAN IS DAVIS-MONTHAN AIR FORCE BASE
NAS    - NAVAL AIR STATION
         EL CENTRO NAS IS EL CENTRO NAVAL AIR STATION
N/A    - NOT AVAILABLE




USA.gov is the U.S. government's official web portal to all federal, state and local government web resources and services.